{"data":{"norad_id":57240,"epoch":"2026-09-20T08:06:56.085696Z","epoch_age_seconds":138227,"freshness":"FRESH","line1":"1 57240U 23094Y   26263.33814914  .00000137  00000+0  14506-4 0  9998","line2":"2 57240  43.0054   0.2193 0001975 279.1097  80.9531 15.27575521177010","mean_motion":15.27575521,"eccentricity":0.0001975,"inclination_deg":43.0054,"raan_deg":0.2193,"arg_perigee_deg":279.1097,"mean_anomaly_deg":80.9531,"bstar":1.4506e-5,"rev_number":17701,"period_min":94.267025112927,"perigee_km":481.70742090694,"apogee_km":484.41759471253,"semimajor_km":6861.1995078097,"source":"CELESTRAK","updated_at":"2026-09-21T09:00:33.588839Z"}}